Location: Hurstbourne Priors
(51.2000°N, 1.3667°W)
Time: 01:58:56
(UTC+00:00)

SR - All Passes

Search period start: 21 April 2021 00:00
Search period end: 01 May 2021 00:00
Orbit: 573 x 882 km, 66.7° (Epoch: 20 April)

Date Brightness Start Highest point End Pass type
(mag) Time Alt. Az. Time Alt. Az. Time Alt. Az.
21 Apr - 05:48:44 10° SE 05:51:38 14° ESE 05:54:34 10° ENE daylight
21 Apr - 07:27:00 10° SSW 07:32:40 68° ESE 07:38:35 10° NE daylight
21 Apr - 09:09:55 10° WSW 09:15:15 36° NW 09:20:45 10° NNE daylight
21 Apr - 10:54:57 10° NW 10:59:05 19° N 11:03:14 10° NNE daylight
21 Apr - 12:39:06 10° NNW 12:43:24 20° NNE 12:47:37 10° ENE daylight
21 Apr - 14:21:27 10° NNW 14:27:05 42° NE 14:32:25 10° ESE daylight
21 Apr - 16:03:44 10° NW 16:09:25 53° WSW 16:14:45 10° SSE daylight
22 Apr - 06:37:46 10° S 06:43:03 41° ESE 06:48:33 10° NE daylight
22 Apr - 08:19:28 10° WSW 08:25:07 52° NW 08:30:58 10° NNE daylight
22 Apr - 10:04:03 10° WNW 10:08:35 22° NNW 10:13:09 10° NNE daylight
22 Apr - 11:48:52 10° NW 11:52:50 18° N 11:56:47 10° NE daylight
22 Apr - 13:31:40 10° NNW 13:36:52 30° NNE 13:41:51 10° E daylight
22 Apr - 15:13:47 10° NW 15:19:43 87° SW 15:25:15 10° SE daylight
22 Apr - 16:57:07 10° WNW 17:01:00 19° WSW 17:04:44 10° SSW daylight
23 Apr - 05:49:10 10° SSE 05:53:37 24° ESE 05:58:13 10° ENE daylight
23 Apr - 07:29:23 10° SW 07:35:09 80° NW 07:41:09 10° NE daylight
23 Apr - 09:13:12 10° W 09:18:11 28° NNW 09:23:15 10° NNE daylight
23 Apr - 10:58:20 10° NW 11:02:16 18° N 11:06:11 10° NE daylight
23 Apr - 12:41:47 10° NNW 12:46:29 23° NNE 12:51:03 10° ENE daylight
23 Apr - 14:23:57 10° NW 14:29:49 60° NE 14:35:19 10° SE daylight
23 Apr - 16:06:32 10° NW 16:11:39 33° WSW 16:16:28 10° S daylight
24 Apr - 05:01:43 10° SE 05:04:21 13° ESE 05:07:02 10° ENE daylight
24 Apr - 06:39:43 10° SSW 06:45:22 65° ESE 06:51:16 10° NE daylight
24 Apr - 08:22:30 10° WSW 08:27:54 37° NW 08:33:26 10° NNE daylight
24 Apr - 10:07:32 10° WNW 10:11:42 19° NNW 10:15:52 10° NNE daylight
24 Apr - 11:51:45 10° NNW 11:56:00 20° NNE 12:00:10 10° ENE daylight
24 Apr - 13:34:09 10° NNW 13:39:44 40° NE 13:45:01 10° ESE daylight
24 Apr - 15:16:24 10° NW 15:22:07 56° WSW 15:27:27 10° SSE daylight
24 Apr - 17:01:56 10° W 17:02:55 10° W 17:03:53 10° WSW daylight
25 Apr - 05:50:31 10° S 05:55:46 39° ESE 06:01:13 10° NE daylight
25 Apr - 07:32:06 10° WSW 07:37:47 54° NW 07:43:38 10° NNE daylight
25 Apr - 09:16:37 10° WNW 09:21:12 23° NNW 09:25:49 10° NNE daylight
25 Apr - 11:01:30 10° NW 11:05:27 18° N 11:09:21 10° NE daylight
25 Apr - 12:44:21 10° NNW 12:49:29 29° NNE 12:54:25 10° E daylight
25 Apr - 14:26:28 10° NW 14:32:24 89° ENE 14:37:54 10° SE daylight
25 Apr - 16:09:42 10° WNW 16:13:44 20° WSW 16:17:35 10° SSW daylight
26 Apr - 05:02:00 10° SSE 05:06:20 23° ESE 05:10:50 10° ENE daylight
26 Apr - 06:42:03 10° SW 06:47:50 83° NW 06:53:50 10° NE daylight
26 Apr - 08:25:46 10° W 08:30:49 29° NNW 08:35:55 10° NNE daylight
26 Apr - 10:10:55 10° NW 10:14:52 18° N 10:18:47 10° NE daylight
26 Apr - 11:54:28 10° NNW 11:59:06 23° NNE 12:03:36 10° ENE daylight
26 Apr - 13:36:39 10° NW 13:42:28 57° NE 13:47:56 10° SE daylight
26 Apr - 15:19:11 10° NW 15:24:22 34° WSW 15:29:14 10° S daylight
27 Apr - 04:14:45 10° SE 04:17:06 13° E 04:19:29 10° ENE daylight
27 Apr - 05:52:25 10° SSW 05:58:04 62° ESE 06:03:56 10° NE daylight
27 Apr - 07:35:06 10° WSW 07:40:33 39° NW 07:46:07 10° NNE daylight
27 Apr - 09:20:06 10° WNW 09:24:18 19° NNW 09:28:31 10° NNE daylight
27 Apr - 11:04:25 10° NNW 11:08:37 19° NNE 11:12:43 10° ENE daylight
27 Apr - 12:46:52 10° NNW 12:52:22 39° NE 12:57:36 10° ESE daylight
27 Apr - 14:29:05 10° NW 14:34:49 59° WSW 14:40:09 10° SSE daylight
27 Apr - 16:14:05 10° W 16:15:39 11° W 16:17:12 10° WSW daylight
28 Apr - 05:03:16 10° S 05:08:28 37° ESE 05:13:52 10° NE daylight
28 Apr - 06:44:43 10° WSW 06:50:27 57° NW 06:56:20 10° NE daylight
28 Apr - 08:29:11 10° WNW 08:33:49 23° NNW 08:38:28 10° NNE daylight
28 Apr - 10:14:07 10° NW 10:18:03 18° N 10:21:56 10° NE daylight
28 Apr - 11:57:03 10° NNW 12:02:07 28° NNE 12:06:58 10° E daylight
28 Apr - 13:39:10 10° NW 13:45:04 85° NE 13:50:33 10° SE daylight
28 Apr - 15:22:18 10° WNW 15:26:28 21° WSW 15:30:25 10° SSW daylight
29 Apr - 04:14:50 10° SSE 04:19:04 22° ESE 04:23:26 10° ENE daylight
29 Apr - 05:54:42 10° SW 06:00:31 87° NW 06:06:31 10° NE daylight
29 Apr - 07:38:20 10° W 07:43:26 29° NNW 07:48:35 10° NNE daylight
29 Apr - 09:23:30 10° NW 09:27:28 18° N 09:31:24 10° NE daylight
29 Apr - 11:07:08 10° NNW 11:11:43 22° NNE 11:16:09 10° ENE daylight
29 Apr - 12:49:20 10° NNW 12:55:07 55° NE 13:00:33 10° ESE daylight
29 Apr - 14:31:50 10° NW 14:37:04 36° WSW 14:41:58 10° S daylight
30 Apr - 03:27:51 10° ESE 03:29:50 12° E 03:31:51 10° E visible
30 Apr - 05:05:07 10° SSW 05:10:45 59° ESE 05:16:36 10° NE daylight
30 Apr - 06:47:41 10° WSW 06:53:12 40° NW 06:58:48 10° NNE daylight
30 Apr - 08:32:40 10° WNW 08:36:55 20° NNW 08:41:08 10° NNE daylight
30 Apr - 10:17:04 10° NNW 10:21:13 19° NNE 10:25:16 10° NE daylight
30 Apr - 11:59:32 10° NNW 12:05:00 37° NE 12:10:11 10° ESE daylight
30 Apr - 13:41:46 10° NW 13:47:30 62° WSW 13:52:50 10° SSE daylight
30 Apr - 15:26:25 10° W 15:28:23 12° W 15:30:19 10° WSW daylight
